Regional Weather Roundup
Issued by NWS

Home | Current Version | Previous Version | Text Only | Print | Product List | Glossary Off
Versions: 1 2 3 4 5 6 7 8 9 10 11 12 13 14 15 16 17 18 19 20 21 22 23 24 25 26 27 28 29 30 31 32 33 34 35 36 37 38 39 40 41 42 43 44 45 46 47 48 49 50

000
ASUS45 KPSR 270310
RWRAZ

ARIZONA HOURLY REGIONAL WEATHER ROUNDUP
NATIONAL WEATHER SERVICE PHOENIX AZ
800 PM MST WED JUL 26 2017

NOTE: FAIR INDICATES FEW OR NO CLOUDS BELOW 12,000 FEET WITH NO
SIGNIFICANT WEATHER AND/OR OBSTRUCTIONS TO VISIBILITY.

AZZ001>003-036-270400-
NORTHWEST ARIZONA

CITY           SKY/WX    TMP DP  RH WIND       PRES   REMARKS
KINGMAN        PTCLDY    88  61  40 N3        30.05S
$$

AZZ004>008-015-016-018-270400-
NORTH CENTRAL ARIZONA

CITY           SKY/WX    TMP DP  RH WIND       PRES   REMARKS
GRAND CANYON   PTCLDY    71  55  56 CALM      30.31S
WILLIAMS       MOCLDY    73  57  56 CALM      30.32R
PRESCOTT       PTCLDY    80  58  46 W6        30.18R
FLAGSTAFF      PTCLDY    66  57  72 CALM      30.35S
PAYSON         PTCLDY    81  57  44 W5        30.22R
PAGE           PTCLDY    88  55  32 N5        30.08S
$$

AZZ009>014-017-270400-
NORTHEAST ARIZONA

CITY           SKY/WX    TMP DP  RH WIND       PRES   REMARKS
WINSLOW        MOCLDY    82  56  40 SW12      30.16R
SAINT JOHNS    CLOUDY    78  56  46 S14       30.22R
WINDOW ROCK    MOCLDY    75  53  46 CALM      30.28R
SHOW LOW       MOCLDY    72  54  53 S10       30.30R
$$

AZZ540-542>544-546-548-270400-
GREATER PHOENIX AREA

CITY           SKY/WX    TMP DP  RH WIND       PRES   REMARKS
PHOENIX        MOCLDY   101  57  23 W8        29.83R HX 100
BUCKEYE        PTCLDY    95  64  36 SW5       29.84S
GLENDALE       MOCLDY   100  61  27 S6        29.85R HX 101
LUKE AFB       PTCLDY   100  59  25 SW10      29.83R HX 100
DEER VALLEY    PTCLDY    98  59  27 SW9       29.86R
SCOTTSDALE     PTCLDY    99  56  23 SW6       29.88R
MESA-FALCON    PTCLDY    99  63  30 W6        29.87R HX 100
MESA-GATEWAY   PTCLDY    99  59  26 W7        29.87S
CHANDLER       CLEAR    100  55  22 W9        29.85S
$$

AZZ539-553-270400-
SOUTHWEST MARICOPA COUNTY AND PINAL COUNTY

CITY           SKY/WX    TMP DP  RH WIND       PRES   REMARKS
CASA GRANDE    NOT AVBL
GILA BEND      MOCLDY   102  50  17 N5        29.82R
$$

AZZ503-504-507>509-270400-
SOUTHEAST ARIZONA

CITY           SKY/WX    TMP DP  RH WIND       PRES   REMARKS
TUCSON         MOCLDY    90  63  40 VRB7      29.98F
DAVIS-MONTHAN  MOCLDY    89  65  43 SW7       29.97F
RYAN FIELD     PTCLDY    91  63  38 NW7       29.97R
NOGALES        MOCLDY    74  72  93 S5        30.10F
SIERRA VISTA   MOCLDY    76  59  54 W8        30.16R
DOUGLAS        MOCLDY    77  64  64 N7        30.11R
SAFFORD        PTCLDY    87  59  38 NW8       29.98R
$$

AZZ532-270400-
SOUTHWEST ARIZONA

CITY           SKY/WX    TMP DP  RH WIND       PRES   REMARKS
YUMA           CLEAR    100  53  20 S9        29.79R
$$

CAZ041-043-047-048-061-525>527-560>570-270400-
SOUTHERN CALIFORNIA

CITY           SKY/WX    TMP DP  RH WIND       PRES   REMARKS
DOWNTOWN L.A.  CLEAR     72  62  71 VRB3      29.95R
L.A. AIRPORT   PTCLDY    69  64  84 W8        29.95R
SAN DIEGO      MOCLDY    72  64  76 W9        29.97R
BURBANK        CLEAR     74  61  63 SE14      29.94R
ONTARIO        PTCLDY    80  61  52 W13       29.95R
RIVERSIDE      CLEAR     80  64  58 W12       29.94R
PALM SPRINGS   CLEAR    103  43  13 SE7       29.81R
EL CENTRO NAS  PTCLDY    98  57  25 SE12      29.78R
IMPERIAL       CLEAR    102  57  22 SE14      29.75R HX 101
BLYTHE         MOCLDY   103  61  25 S9        29.78R HX 104
NEEDLES        CLEAR    106  49  14 SW7       29.81S HX 103
$$

NVZ020-UTZ003-270400-
SOUTHERN NEVADA-UTAH

CITY           SKY/WX    TMP DP  RH WIND       PRES   REMARKS
LAS VEGAS      PTCLDY    97  60  29 E5        29.92R
SALT LAKE CITY CLOUDY    82  61  48 N9        30.09S
$$

NMZ009-TXZ055-270400-
NEW MEXICO-WEST TEXAS

CITY           SKY/WX    TMP DP  RH WIND       PRES   REMARKS
ALBUQUERQUE    CLOUDY    89  52  28 SW12      30.13R
EL PASO        MOCLDY    84  64  50 E5        30.04F
$$


........................KEY........................
SKY/WX - SKY CONDITION/WEATHER
TMP    - TEMPERATURE IN FAHRENHEIT
DP     - DEW POINT IN FAHRENHEIT
RH     - RELATIVE HUMIDITY IN PERCENT
WIND   - DIRECTION AND SPEED IN MILES PER HOUR (MPH)
VRB    - VARIABLE WIND DIRECTION
PRES   - MEAN SEA LEVEL PRESSURE IN INCHES OF MERCURY
         F - FALLING PRESSURE   R - RISING PRESSURE
         S - STEADY PRESSURE
VSB    - VISIBILITY IN MILES
HX     - HEAT INDEX IN FAHRENHEIT
WCI    - WIND CHILL INDEX IN FAHRENHEIT
TC     - TEMPERATURE IN CELSIUS WHICH IS ALSO KNOWN AS
         TEMPERATURE IN CENTIGRADE
AFB    - AIR FORCE BASE
         LUKE AFB IS LUKE AIR FORCE BASE
         DAVIS-MONTHAN IS DAVIS-MONTHAN AIR FORCE BASE
NAS    - NAVAL AIR STATION
         EL CENTRO NAS IS EL CENTRO NAVAL AIR STATION
N/A    - NOT AVAILABLE




USA.gov is the U.S. government's official web portal to all federal, state and local government web resources and services.